Location: Garshuizen
(53.3675°N, 6.7248°E)
Time: 07:33:26
(UTC+00:00)

SPOT 3 Rocket - Pass Details

Date: 15 May 2026
Orbit: 774 x 790 km, 98.5° (Epoch: 6 June)

Event Time Altitude Azimuth Distance (km) Brightness Sun altitude
Exits shadow 21:09:24 10° 180° (S) 2,334 5.5 -11.6°
Reaches altitude 10° 21:09:26 10° 180° (S) 2,325 5.5 -11.6°
Maximum altitude 21:14:28 56° 259° (W) 923 4.0 -12.0°
Drops below altitude 10° 21:19:32 10° 338° (NNW) 2,336 7.5 -12.4°
Sets 21:21:54 0° 343° (NNW) 3,267 8.5 -12.5°
